TimeCDT,TemperatureF,Dew PointF,Humidity,Sea Level PressureIn,VisibilityMPH,Wind Direction,Wind SpeedMPH,Gust SpeedMPH,PrecipitationIn,Events,Conditions,WindDirDegrees,DateUTC
12:13 AM,66.2,57.2,73,30.00,10.0,SE,6.9,-,N/A,,Clear,140,2013-06-19 05:13:00
12:34 AM,66.2,57.2,73,30.00,10.0,SE,6.9,-,N/A,,Scattered Clouds,140,2013-06-19 05:34:00
12:53 AM,66.2,57.2,73,30.01,10.0,SE,5.8,-,N/A,,Scattered Clouds,130,2013-06-19 05:53:00
1:14 AM,66.2,57.2,73,30.00,10.0,SE,5.8,-,N/A,,Scattered Clouds,140,2013-06-19 06:14:00
1:33 AM,66.2,57.2,73,30.00,10.0,SE,4.6,-,N/A,,Mostly Cloudy,140,2013-06-19 06:33:00
1:53 AM,66.2,57.2,73,29.99,10.0,SE,8.1,-,N/A,,Scattered Clouds,130,2013-06-19 06:53:00
2:14 AM,64.4,57.2,77,29.99,10.0,SE,6.9,-,N/A,,Scattered Clouds,130,2013-06-19 07:14:00
2:34 AM,64.4,57.2,77,29.99,10.0,SE,5.8,-,N/A,,Clear,130,2013-06-19 07:34:00
2:53 AM,64.4,57.2,77,29.99,10.0,ESE,4.6,-,N/A,,Scattered Clouds,120,2013-06-19 07:53:00
3:13 AM,64.4,57.2,77,29.98,10.0,SE,9.2,-,N/A,,Scattered Clouds,130,2013-06-19 08:13:00
3:33 AM,64.4,57.2,77,29.98,10.0,SE,6.9,-,N/A,,Clear,130,2013-06-19 08:33:00
3:53 AM,64.4,57.2,77,29.98,10.0,SE,6.9,-,N/A,,Clear,130,2013-06-19 08:53:00
4:13 AM,62.6,57.2,82,29.98,10.0,ESE,4.6,-,N/A,,Clear,120,2013-06-19 09:13:00
4:33 AM,62.6,57.2,82,29.99,10.0,ESE,5.8,-,N/A,,Clear,120,2013-06-19 09:33:00
4:53 AM,62.6,57.2,82,29.99,10.0,SE,5.8,-,N/A,,Clear,130,2013-06-19 09:53:00
5:13 AM,62.6,57.2,82,29.99,10.0,SE,5.8,-,N/A,,Clear,130,2013-06-19 10:13:00
5:33 AM,62.6,57.2,82,29.99,10.0,ESE,5.8,-,N/A,,Clear,110,2013-06-19 10:33:00
5:53 AM,62.6,57.2,82,29.99,10.0,ESE,6.9,-,N/A,,Clear,110,2013-06-19 10:53:00
6:13 AM,62.6,57.2,82,30.00,10.0,ESE,5.8,-,N/A,,Clear,110,2013-06-19 11:13:00
6:33 AM,62.6,57.2,82,29.99,10.0,ESE,6.9,-,N/A,,Clear,120,2013-06-19 11:33:00
6:54 AM,64.4,59.0,83,29.99,10.0,ESE,6.9,-,N/A,,Clear,120,2013-06-19 11:54:00
7:13 AM,64.4,59.0,83,29.99,10.0,SE,5.8,-,N/A,,Clear,130,2013-06-19 12:13:00
7:33 AM,66.2,59.0,78,29.99,10.0,SE,6.9,-,N/A,,Clear,140,2013-06-19 12:33:00
7:53 AM,66.2,59.0,78,29.99,10.0,SE,8.1,-,N/A,,Clear,140,2013-06-19 12:53:00
8:14 AM,68.0,60.8,78,29.99,10.0,SE,3.5,-,N/A,,Clear,140,2013-06-19 13:14:00
8:34 AM,69.8,59.0,68,29.99,10.0,SE,6.9,-,N/A,,Clear,130,2013-06-19 13:34:00
8:53 AM,71.6,60.8,69,29.99,10.0,SE,8.1,-,N/A,,Clear,140,2013-06-19 13:53:00
9:14 AM,71.6,60.8,69,29.98,10.0,SSE,6.9,-,N/A,,Clear,160,2013-06-19 14:14:00
9:33 AM,73.4,60.8,65,29.98,10.0,SSE,8.1,-,N/A,,Clear,150,2013-06-19 14:33:00
9:54 AM,75.2,60.8,61,29.97,10.0,SSE,6.9,-,N/A,,Clear,150,2013-06-19 14:54:00
10:13 AM,75.2,60.8,61,29.96,10.0,SSE,6.9,-,N/A,,Clear,160,2013-06-19 15:13:00
10:33 AM,78.8,60.8,54,29.96,10.0,SE,9.2,-,N/A,,Clear,140,2013-06-19 15:33:00
10:53 AM,78.8,60.8,54,29.96,10.0,SSE,8.1,-,N/A,,Clear,150,2013-06-19 15:53:00
11:14 AM,80.6,60.8,51,29.95,10.0,SSE,5.8,-,N/A,,Clear,160,2013-06-19 16:14:00
11:33 AM,80.6,60.8,51,29.95,10.0,SE,6.9,-,N/A,,Clear,140,2013-06-19 16:33:00
11:53 AM,82.4,60.8,48,29.95,10.0,SSE,5.8,-,N/A,,Clear,160,2013-06-19 16:53:00
12:13 PM,82.4,60.8,48,29.95,10.0,SSE,4.6,-,N/A,,Clear,150,2013-06-19 17:13:00
12:33 PM,84.2,59.0,42,29.94,10.0,SE,4.6,-,N/A,,Clear,140,2013-06-19 17:33:00
12:53 PM,82.4,60.8,48,29.94,10.0,ESE,6.9,-,N/A,,Scattered Clouds,110,2013-06-19 17:53:00
1:14 PM,82.4,59.0,45,29.93,10.0,South,4.6,-,N/A,,Mostly Cloudy,170,2013-06-19 18:14:00
1:33 PM,84.2,57.2,40,29.93,10.0,SSE,4.6,-,N/A,,Scattered Clouds,160,2013-06-19 18:33:00
1:53 PM,86.0,53.6,33,29.92,10.0,SE,4.6,-,N/A,,Clear,140,2013-06-19 18:53:00
2:13 PM,87.8,55.4,33,29.91,10.0,South,6.9,-,N/A,,Clear,180,2013-06-19 19:13:00
2:33 PM,84.2,53.6,35,29.91,10.0,South,4.6,-,N/A,,Scattered Clouds,180,2013-06-19 19:33:00
2:53 PM,87.8,55.4,33,29.90,10.0,SSW,9.2,-,N/A,,Clear,200,2013-06-19 19:53:00
3:14 PM,87.8,53.6,31,29.89,10.0,SSE,6.9,10.4,N/A,,Clear,150,2013-06-19 20:14:00
3:33 PM,87.8,51.8,29,29.89,10.0,SE,12.7,-,N/A,,Scattered Clouds,130,2013-06-19 20:33:00
3:53 PM,87.8,51.8,29,29.89,10.0,SSE,9.2,-,N/A,,Scattered Clouds,150,2013-06-19 20:53:00
4:14 PM,87.8,53.6,31,29.89,10.0,SE,8.1,-,N/A,,Clear,130,2013-06-19 21:14:00
4:33 PM,86.0,51.8,31,29.88,10.0,South,8.1,-,N/A,,Scattered Clouds,190,2013-06-19 21:33:00
4:53 PM,89.6,48.2,24,29.88,10.0,South,6.9,-,N/A,,Scattered Clouds,170,2013-06-19 21:53:00
5:13 PM,87.8,48.2,25,29.87,10.0,SW,8.1,-,N/A,,Clear,230,2013-06-19 22:13:00
5:33 PM,84.2,53.6,35,29.87,10.0,SSE,4.6,-,N/A,,Clear,160,2013-06-19 22:33:00
5:53 PM,84.2,55.4,37,29.87,10.0,SE,3.5,-,N/A,,Clear,140,2013-06-19 22:53:00
6:13 PM,84.2,55.4,37,29.86,10.0,SE,4.6,-,N/A,,Clear,140,2013-06-19 23:13:00
6:33 PM,84.2,55.4,37,29.86,10.0,SE,6.9,-,N/A,,Clear,140,2013-06-19 23:33:00
6:53 PM,84.2,53.6,35,29.86,10.0,SE,5.8,-,N/A,,Clear,140,2013-06-19 23:53:00
7:13 PM,84.2,51.8,33,29.86,10.0,SE,9.2,-,N/A,,Scattered Clouds,130,2013-06-20 00:13:00
7:33 PM,84.2,53.6,35,29.86,10.0,SE,8.1,-,N/A,,Scattered Clouds,140,2013-06-20 00:33:00
7:53 PM,82.4,55.4,39,29.85,10.0,SE,8.1,-,N/A,,Clear,140,2013-06-20 00:53:00
8:14 PM,82.4,57.2,42,29.86,10.0,SSE,8.1,-,N/A,,Scattered Clouds,160,2013-06-20 01:14:00
8:33 PM,82.4,57.2,42,29.86,10.0,SSE,5.8,-,N/A,,Scattered Clouds,160,2013-06-20 01:33:00
8:53 PM,80.6,59.0,48,29.86,10.0,SSE,4.6,-,N/A,,Clear,160,2013-06-20 01:53:00
9:14 PM,78.8,60.8,54,29.86,10.0,SSE,4.6,-,N/A,,Clear,150,2013-06-20 02:14:00
9:34 PM,78.8,59.0,51,29.86,10.0,SE,5.8,-,N/A,,Clear,140,2013-06-20 02:34:00
9:53 PM,78.8,59.0,51,29.87,10.0,SE,5.8,-,N/A,,Clear,140,2013-06-20 02:53:00
10:13 PM,77.0,59.0,54,29.88,10.0,ESE,5.8,-,N/A,,Clear,120,2013-06-20 03:13:00
10:33 PM,77.0,59.0,54,29.88,10.0,ESE,6.9,-,N/A,,Scattered Clouds,120,2013-06-20 03:33:00
10:53 PM,75.2,59.0,57,29.88,10.0,SE,8.1,-,N/A,,Scattered Clouds,130,2013-06-20 03:53:00
11:14 PM,75.2,57.2,53,29.88,10.0,SE,8.1,-,N/A,,Scattered Clouds,140,2013-06-20 04:14:00
11:33 PM,75.2,57.2,53,29.87,10.0,SE,8.1,-,N/A,,Clear,140,2013-06-20 04:33:00
11:54 PM,75.2,57.2,53,29.88,10.0,SSE,6.9,-,N/A,,Clear,150,2013-06-20 04:54:00